• In Hungary
  • List of Countries
  • For 7 days
  • Water Temperature
  • Satellite Maps
  • Weather Map
  • News
  • Weather Widgets
  • user-avatar
    Login

    Hourly Weather Prägraten

    Today, 11 December, Monday

    Time Temperature Precipitation Wind Pressure Humidity
    00:00 -13°C° 0.1 mm 3 mps 561 mmHg 91%
    01:00 -12°C° 0.1 mm 3 mps 561 mmHg 91%
    02:00 -12°C° 0.1 mm 3 mps 561 mmHg 91%
    03:00 -11°C° 0.1 mm 4 mps 561 mmHg 92%
    04:00 -11°C° 0.1 mm 4 mps 561 mmHg 92%
    05:00 -10°C° 0.3 mm 4 mps 561 mmHg 92%
    06:00 -10°C° 0.3 mm 4 mps 561 mmHg 92%
    07:00 -9°C° 0.3 mm 4 mps 561 mmHg 92%
    08:00 -8°C° 0.5 mm 4 mps 561 mmHg 92%
    09:00 -8°C° 0.5 mm 5 mps 561 mmHg 92%
    10:00 -7°C° 0.5 mm 5 mps 561 mmHg 92%
    11:00 -6°C° 0.4 mm 5 mps 561 mmHg 93%
    12:00 -5°C° 0.4 mm 5 mps 561 mmHg 93%
    13:00 -5°C° 0.4 mm 6 mps 561 mmHg 94%
    14:00 -5°C° 0.4 mm 6 mps 561 mmHg 94%
    15:00 -5°C° 0.4 mm 6 mps 561 mmHg 93%
    16:00 -5°C° 0.4 mm 6 mps 561 mmHg 93%
    17:00 -5°C° 0.6 mm 5 mps 561 mmHg 93%
    18:00 -5°C° 0.6 mm 5 mps 561 mmHg 93%
    19:00 -5°C° 0.6 mm 5 mps 561 mmHg 93%
    20:00 -6°C° 1.3 mm 5 mps 562 mmHg 94%
    21:00 -5°C° 1.3 mm 4 mps 562 mmHg 94%
    22:00 -5°C° 1.3 mm 4 mps 563 mmHg 94%
    23:00 -5°C° 2.4 mm 4 mps 563 mmHg 95%

    Tomorrow, 12 December, Tuesday

    Time Temperature Precipitation Wind Pressure Humidity
    00:00 -5°C° 2.4 mm 4 mps 563 mmHg 96%
    01:00 -5°C° 2.4 mm 4 mps 563 mmHg 96%
    02:00 -5°C° 2.8 mm 4 mps 564 mmHg 97%
    03:00 -5°C° 2.8 mm 3 mps 564 mmHg 97%
    04:00 -6°C° 2.8 mm 3 mps 564 mmHg 97%
    05:00 -6°C° 2.2 mm 3 mps 565 mmHg 97%
    06:00 -6°C° 2.2 mm 3 mps 566 mmHg 97%
    07:00 -6°C° 2.2 mm 3 mps 566 mmHg 97%
    08:00 -6°C° 1.2 mm 3 mps 567 mmHg 97%
    09:00 -7°C° 1.2 mm 3 mps 568 mmHg 97%
    10:00 -6°C° 1.2 mm 2 mps 569 mmHg 97%
    11:00 -6°C° 0.9 mm 2 mps 569 mmHg 97%
    12:00 -7°C° 0.9 mm 2 mps 569 mmHg 97%
    13:00 -6°C° 0.9 mm 1 mps 569 mmHg 97%
    14:00 -7°C° 0.6 mm 1 mps 569 mmHg 97%
    15:00 -7°C° 0.6 mm 1 mps 570 mmHg 97%
    16:00 -8°C° 0.6 mm 1 mps 570 mmHg 97%
    17:00 -10°C° 0.4 mm 2 mps 570 mmHg 96%
    18:00 -10°C° 0.4 mm 2 mps 570 mmHg 96%
    19:00 -12°C° 0.4 mm 2 mps 570 mmHg 96%
    20:00 -12°C° 0.3 mm 2 mps 571 mmHg 95%
    21:00 -13°C° 0.3 mm 2 mps 571 mmHg 95%
    22:00 -13°C° 0.3 mm 2 mps 571 mmHg 95%
    23:00 -13°C° 0.3 mm 2 mps 572 mmHg 94%

    Day after tomorrow, 13 December, Wednesday

    Time Temperature Precipitation Wind Pressure Humidity
    00:00 -13°C° 0.3 mm 2 mps 572 mmHg 94%
    01:00 -13°C° 0.3 mm 2 mps 572 mmHg 93%
    02:00 -14°C° 0.3 mm 2 mps 572 mmHg 93%
    03:00 -14°C° 0.3 mm 2 mps 572 mmHg 92%
    04:00 -13°C° 0.3 mm 1 mps 572 mmHg 92%
    05:00 -13°C° 0.2 mm 1 mps 572 mmHg 92%
    06:00 -13°C° 0.2 mm 1 mps 572 mmHg 91%
    07:00 -14°C° 0.2 mm 1 mps 572 mmHg 91%
    08:00 -13°C° 0.1 mm 1 mps 572 mmHg 90%
    09:00 -12°C° 0.1 mm 1 mps 573 mmHg 89%
    10:00 -11°C° 0.1 mm 1 mps 573 mmHg 88%
    11:00 -10°C° 0 mm 1 mps 573 mmHg 87%
    12:00 -9°C° 0 mm 1 mps 573 mmHg 87%
    13:00 -9°C° 0 mm 2 mps 573 mmHg 86%
    14:00 -9°C° 0 mm 2 mps 572 mmHg 88%
    15:00 -10°C° 0 mm 2 mps 572 mmHg 90%
    16:00 -10°C° 0 mm 2 mps 571 mmHg 92%
    17:00 -12°C° 0 mm 2 mps 571 mmHg 91%
    18:00 -12°C° 0 mm 2 mps 571 mmHg 91%
    19:00 -12°C° 0 mm 2 mps 571 mmHg 91%
    20:00 -13°C° 0 mm 2 mps 570 mmHg 91%
    21:00 -13°C° 0 mm 2 mps 570 mmHg 91%
    22:00 -14°C° 0 mm 2 mps 570 mmHg 90%
    23:00 -13°C° 0 mm 2 mps 570 mmHg 88%

    14 December, Thursday

    Time Temperature Precipitation Wind Pressure Humidity
    00:00 -13°C° 0 mm 2 mps 569 mmHg 86%
    01:00 -13°C° 0 mm 2 mps 569 mmHg 84%
    02:00 -14°C° 0 mm 2 mps 569 mmHg 82%
    03:00 -14°C° 0 mm 2 mps 568 mmHg 79%
    04:00 -14°C° 0 mm 2 mps 568 mmHg 77%
    05:00 -14°C° 0.1 mm 2 mps 568 mmHg 78%
    06:00 -13°C° 0.1 mm 2 mps 568 mmHg 79%
    07:00 -12°C° 0.1 mm 2 mps 568 mmHg 80%
    08:00 -12°C° 0.1 mm 2 mps 569 mmHg 81%
    09:00 -10°C° 0.1 mm 2 mps 569 mmHg 83%
    10:00 -9°C° 0.1 mm 2 mps 569 mmHg 84%
    11:00 -9°C° 0.2 mm 2 mps 569 mmHg 86%
    12:00 -8°C° 0.2 mm 2 mps 569 mmHg 87%
    13:00 -7°C° 0.2 mm 2 mps 568 mmHg 89%
    14:00 -8°C° 0 mm 2 mps 568 mmHg 90%
    15:00 -9°C° 0 mm 2 mps 567 mmHg 91%
    16:00 -10°C° 0 mm 3 mps 566 mmHg 92%
    17:00 -10°C° 0 mm 3 mps 566 mmHg 92%
    18:00 -12°C° 0 mm 3 mps 565 mmHg 92%
    19:00 -12°C° 0 mm 3 mps 565 mmHg 92%
    20:00 -10°C° 0 mm 3 mps 565 mmHg 92%
    21:00 -10°C° 0 mm 3 mps 565 mmHg 91%
    22:00 -11°C° 0 mm 4 mps 564 mmHg 91%
    23:00 -9°C° 0 mm 3 mps 564 mmHg 91%

    15 December, Friday

    Time Temperature Precipitation Wind Pressure Humidity
    00:00 -9°C° 0 mm 3 mps 564 mmHg 92%
    01:00 -9°C° 0 mm 3 mps 564 mmHg 93%
    02:00 -8°C° 0.4 mm 2 mps 564 mmHg 94%
    03:00 -8°C° 0.4 mm 2 mps 565 mmHg 95%
    04:00 -8°C° 0.4 mm 1 mps 565 mmHg 97%
    05:00 -8°C° 0.6 mm 1 mps 565 mmHg 97%
    06:00 -8°C° 0.6 mm 1 mps 565 mmHg 97%
    07:00 -8°C° 0.6 mm 1 mps 565 mmHg 97%
    08:00 -8°C° 0.5 mm 1 mps 565 mmHg 96%
    09:00 -8°C° 0.5 mm 1 mps 565 mmHg 96%
    10:00 -8°C° 0.5 mm 1 mps 566 mmHg 95%
    11:00 -8°C° 0.7 mm 1 mps 565 mmHg 95%
    12:00 -8°C° 0.7 mm 1 mps 565 mmHg 95%
    13:00 -9°C° 0.7 mm 2 mps 565 mmHg 94%
    14:00 -9°C° 1.1 mm 2 mps 564 mmHg 95%
    15:00 -10°C° 1.1 mm 2 mps 564 mmHg 96%
    16:00 -10°C° 1.1 mm 2 mps 564 mmHg 96%
    17:00 -10°C° 1 mm 2 mps 564 mmHg 96%
    18:00 -12°C° 1 mm 2 mps 564 mmHg 96%
    19:00 -12°C° 1 mm 2 mps 564 mmHg 95%
    20:00 -12°C° 0.9 mm 2 mps 564 mmHg 95%
    21:00 -13°C° 0.9 mm 2 mps 564 mmHg 95%
    22:00 -13°C° 0.9 mm 2 mps 564 mmHg 95%
    23:00 -13°C° 0.6 mm 2 mps 564 mmHg 94%

    16 December, Saturday

    Time Temperature Precipitation Wind Pressure Humidity
    00:00 -13°C° 0.6 mm 2 mps 564 mmHg 93%
    01:00 -14°C° 0.6 mm 2 mps 564 mmHg 93%
    02:00 -14°C° 0.4 mm 2 mps 563 mmHg 92%
    03:00 -14°C° 0.4 mm 2 mps 563 mmHg 92%
    04:00 -15°C° 0.4 mm 2 mps 563 mmHg 92%
    05:00 -15°C° 0.2 mm 2 mps 563 mmHg 91%
    06:00 -16°C° 0.2 mm 3 mps 563 mmHg 91%
    07:00 -16°C° 0.2 mm 3 mps 564 mmHg 90%
    08:00 -16°C° 0.1 mm 3 mps 564 mmHg 89%
    09:00 -15°C° 0.1 mm 3 mps 565 mmHg 89%
    10:00 -15°C° 0.1 mm 3 mps 565 mmHg 88%
    11:00 -15°C° 0.1 mm 3 mps 566 mmHg 88%
    12:00 -14°C° 0.1 mm 3 mps 566 mmHg 87%
    13:00 -14°C° 0.1 mm 3 mps 566 mmHg 87%
    14:00 -14°C° 0.2 mm 3 mps 567 mmHg 89%
    15:00 -14°C° 0.2 mm 3 mps 567 mmHg 90%
    16:00 -15°C° 0.2 mm 3 mps 567 mmHg 92%
    17:00 -15°C° 0.2 mm 3 mps 567 mmHg 92%
    18:00 -16°C° 0.2 mm 3 mps 568 mmHg 92%
    19:00 -16°C° 0.2 mm 3 mps 568 mmHg 93%
    20:00 -16°C° 0.2 mm 3 mps 568 mmHg 93%
    21:00 -17°C° 0.2 mm 3 mps 569 mmHg 93%
    22:00 -17°C° 0.2 mm 3 mps 569 mmHg 93%
    23:00 -18°C° 0 mm 3 mps 568 mmHg 92%
    Show more